| time (UTC) | temp F | wind direction | speed MPH | gust MPH | rain 1hr in | rain 24hr in | rain mn in | humidity % | barometer mb |
| 20260506083852 | 54 | 48 | 3.0 | 5.0 | 0.00 | 0.00 | 0.00 | 83 | 1010.6 |
| 20260506083349 | 54 | 0 | 4.0 | 6.0 | 0.00 | 0.00 | 0.00 | 83 | 1010.8 |
| 20260506082846 | 54 | 11 | 3.0 | 5.0 | 0.00 | 0.00 | 0.00 | 83 | 1010.4 |
| 20260506082343 | 54 | 333 | 6.0 | 8.0 | 0.00 | 0.00 | 0.00 | 83 | 1010.7 |
| 20260506081839 | 54 | 1 | 5.0 | 7.0 | 0.00 | 0.00 | 0.00 | 84 | 1010.5 |
| 20260506081338 | 54 | 358 | 6.0 | 7.0 | 0.00 | 0.00 | 0.00 | 84 | 1010.5 |
| 20260506080835 | 54 | 29 | 3.0 | 3.0 | 0.00 | 0.00 | 0.00 | 85 | 1010.3 |
| 20260506080331 | 54 | 23 | 1.0 | 2.0 | 0.00 | 0.00 | 0.00 | 85 | 1010.3 |
| 20260506073315 | 55 | 339 | 4.0 | 7.0 | 0.00 | 0.00 | 0.00 | 84 | 1010.5 |
| 20260506072812 | 55 | 324 | 3.0 | 5.0 | 0.00 | 0.00 | 0.00 | 85 | 1010.4 |
| 20260506072310 | 55 | 330 | 6.0 | 9.0 | 0.00 | 0.00 | 0.00 | 84 | 1010.3 |
| 20260506071807 | 55 | 356 | 3.0 | 3.0 | 0.00 | 0.00 | 0.00 | 85 | 1010.6 |
| 20260506071305 | 55 | 341 | 5.0 | 6.0 | 0.00 | 0.00 | 0.00 | 84 | 1010.3 |
| 20260506070802 | 55 | 332 | 3.0 | 3.0 | 0.00 | 0.00 | 0.00 | 84 | 1010.7 |
| 20260506070259 | 55 | 336 | 1.0 | 2.0 | 0.00 | 0.00 | 0.00 | 84 | 1010.6 |
| 20260506062236 | 56 | 0 | 3.0 | 8.0 | 0.00 | 0.00 | 0.00 | 85 | 1010.5 |
| 20260506061732 | 55 | 44 | 2.0 | 3.0 | 0.00 | 0.00 | 0.00 | 85 | 1010.3 |
| 20260506061230 | 55 | 12 | 6.0 | 7.0 | 0.00 | 0.00 | 0.00 | 86 | 1010.1 |
| 20260506060728 | 55 | 8 | 1.0 | 2.0 | 0.00 | 0.00 | 0.00 | 85 | 1009.8 |
| 20260506060224 | 55 | 75 | 0.0 | 0.0 | 0.00 | 0.00 | 0.00 | 85 | 1009.3 |
| 20260506051156 | 56 | 75 | 0.0 | 1.0 | 0.00 | 0.00 | 0.00 | 82 | 1009.6 |
| 20260506050655 | 56 | 49 | 4.0 | 8.0 | 0.00 | 0.00 | 0.00 | 81 | 1009.5 |
| 20260506050151 | 57 | 69 | 3.0 | 3.0 | 0.00 | 0.00 | 0.00 | 81 | 1009.9 |
| 20260506044643 | 57 | 32 | 3.0 | 3.0 | 0.00 | 0.00 | 0.00 | 82 | 1010.3 |
| 20260506044139 | 57 | 80 | 1.0 | 2.0 | 0.00 | 0.00 | 0.00 | 82 | 1010.1 |
| 20260506043636 | 57 | 87 | 1.0 | 1.0 | 0.00 | 0.00 | 0.00 | 82 | 1010.2 |
| 20260506043134 | 57 | 57 | 2.0 | 2.0 | 0.00 | 0.00 | 0.00 | 82 | 1010.1 |
| 20260506042633 | 57 | 25 | 1.0 | 2.0 | 0.00 | 0.00 | 0.00 | 82 | 1010.1 |
| 20260506042131 | 57 | 20 | 3.0 | 3.0 | 0.00 | 0.00 | 0.00 | 81 | 1010.1 |
| 20260506041629 | 57 | 75 | 3.0 | 5.0 | 0.00 | 0.00 | 0.00 | 81 | 1010.1 |
| 20260506041125 | 58 | 89 | 3.0 | 6.0 | 0.00 | 0.00 | 0.00 | 80 | 1010.0 |
| 20260506040623 | 58 | 51 | 3.0 | 6.0 | 0.00 | 0.00 | 0.00 | 80 | 1010.0 |
| 20260506040120 | 58 | 91 | 6.0 | 8.0 | 0.00 | 0.00 | 0.00 | 81 | 1010.3 |
| 20260506035617 | 58 | 69 | 0.0 | 1.0 | 0.00 | 0.00 | 0.00 | 81 | 1010.1 |
| 20260506035113 | 58 | 67 | 4.0 | 5.0 | 0.00 | 0.00 | 0.00 | 81 | 1010.0 |
| 20260506034611 | 58 | 54 | 3.0 | 5.0 | 0.00 | 0.00 | 0.00 | 81 | 1009.9 |
| 20260506034108 | 58 | 70 | 0.0 | 1.0 | 0.00 | 0.00 | 0.00 | 81 | 1009.6 |
| 20260506033605 | 58 | 42 | 5.0 | 7.0 | 0.00 | 0.00 | 0.00 | 80 | 1009.8 |
| 20260506033101 | 59 | 5 | 7.0 | 9.0 | 0.00 | 0.00 | 0.00 | 80 | 1009.8 |
| 20260506032559 | 59 | 5 | 2.0 | 6.0 | 0.00 | 0.00 | 0.00 | 80 | 1009.9 |
| 20260506032056 | 59 | 14 | 3.0 | 3.0 | 0.00 | 0.00 | 0.00 | 80 | 1009.9 |
| 20260506031553 | 59 | 31 | 5.0 | 8.0 | 0.00 | 0.00 | 0.00 | 80 | 1009.6 |
| 20260506031050 | 60 | 5 | 2.0 | 5.0 | 0.00 | 0.00 | 0.00 | 79 | 1009.4 |
| 20260506030548 | 60 | 1 | 3.0 | 3.0 | 0.00 | 0.00 | 0.00 | 79 | 1009.4 |
| 20260506030045 | 60 | 65 | 0.0 | 0.0 | 0.00 | 0.00 | 0.00 | 79 | 1009.6 |
| 20260506025542 | 60 | 99 | 1.0 | 2.0 | 0.00 | 0.00 | 0.00 | 78 | 1009.3 |
| 20260506025038 | 61 | 74 | 2.0 | 3.0 | 0.00 | 0.00 | 0.00 | 77 | 1009.3 |
| 20260506024535 | 61 | 15 | 0.0 | 0.0 | 0.00 | 0.00 | 0.00 | 78 | 1009.0 |
| 20260506024031 | 61 | 329 | 5.0 | 8.0 | 0.00 | 0.00 | 0.00 | 78 | 1008.4 |
| 20260506023528 | 62 | 6 | 1.0 | 1.0 | 0.00 | 0.00 | 0.00 | 77 | 1008.7 |
| 20260506023026 | 62 | 327 | 0.0 | 1.0 | 0.00 | 0.00 | 0.00 | 76 | 1008.4 |
| 20260506022523 | 62 | 25 | 3.0 | 8.0 | 0.00 | 0.00 | 0.00 | 76 | 1008.4 |
| 20260506022020 | 63 | 51 | 2.0 | 6.0 | 0.00 | 0.00 | 0.00 | 76 | 1008.3 |
| 20260506021518 | 63 | 73 | 3.0 | 7.0 | 0.00 | 0.00 | 0.00 | 76 | 1008.2 |
| 20260506021015 | 64 | 322 | 7.0 | 13.0 | 0.00 | 0.00 | 0.00 | 75 | 1008.4 |
| 20260506020512 | 65 | 68 | 0.0 | 1.0 | 0.00 | 0.00 | 0.00 | 74 | 1007.8 |
| 20260506020010 | 66 | 34 | 6.0 | 8.0 | 0.00 | 0.00 | 0.00 | 74 | 1007.7 |
| 20260506015507 | 66 | 70 | 6.0 | 9.0 | 0.00 | 0.00 | 0.00 | 73 | 1007.4 |
| 20260506015003 | 67 | 335 | 0.0 | 1.0 | 0.00 | 0.00 | 0.00 | 72 | 1007.1 |
| 20260506014501 | 67 | 49 | 0.0 | 0.0 | 0.00 | 0.00 | 0.00 | 71 | 1006.9 |
| 20260506013957 | 67 | 41 | 1.0 | 3.0 | 0.00 | 0.00 | 0.00 | 70 | 1006.8 |
| 20260506013455 | 68 | 48 | 0.0 | 1.0 | 0.00 | 0.00 | 0.00 | 70 | 1006.5 |
| 20260506012950 | 68 | 101 | 0.0 | 0.0 | 0.00 | 0.00 | 0.00 | 70 | 1006.4 |
| 20260506012447 | 69 | 41 | 0.0 | 0.0 | 0.00 | 0.00 | 0.00 | 69 | 1006.6 |
| 20260506011944 | 69 | 55 | 0.0 | 0.0 | 0.00 | 0.00 | 0.00 | 68 | 1006.7 |
| 20260506011442 | 70 | 25 | 0.0 | 0.0 | 0.00 | 0.00 | 0.00 | 67 | 1006.5 |
| 20260506010938 | 70 | 353 | 0.0 | 0.0 | 0.00 | 0.00 | 0.00 | 66 | 1006.4 |
| 20260506010437 | 70 | 340 | 0.0 | 0.0 | 0.00 | 0.00 | 0.00 | 65 | 1006.6 |
| 20260506005933 | 70 | 49 | 0.0 | 0.0 | 0.00 | 0.00 | 0.00 | 65 | 1006.6 |
| 20260506005431 | 71 | 14 | 0.0 | 0.0 | 0.00 | 0.00 | 0.00 | 64 | 1006.1 |
| 20260506004926 | 71 | 30 | 0.0 | 0.0 | 0.00 | 0.00 | 0.00 | 63 | 1006.0 |
| 20260506004424 | 72 | 8 | 1.0 | 2.0 | 0.00 | 0.00 | 0.00 | 63 | 1006.1 |
| 20260506003920 | 71 | 64 | 0.0 | 0.0 | 0.00 | 0.00 | 0.00 | 63 | 1006.0 |
| 20260506003417 | 72 | 20 | 3.0 | 10.0 | 0.00 | 0.00 | 0.00 | 63 | 1005.8 |
| 20260506002913 | 72 | 34 | 1.0 | 2.0 | 0.00 | 0.00 | 0.00 | 62 | 1005.7 |
| 20260506002409 | 71 | 48 | 1.0 | 2.0 | 0.00 | 0.00 | 0.00 | 61 | 1005.7 |
| 20260506001905 | 71 | 2 | 2.0 | 5.0 | 0.00 | 0.00 | 0.00 | 62 | 1005.5 |
| 20260506001402 | 72 | 56 | 9.0 | 11.0 | 0.00 | 0.00 | 0.00 | 63 | 1005.3 |
| 20260506000859 | 72 | 330 | 1.0 | 3.0 | 0.00 | 0.00 | 0.00 | 63 | 1005.3 |
| 20260506000357 | 72 | 40 | 0.0 | 0.0 | 0.00 | 0.00 | 0.00 | 62 | 1005.5 |
| 20260505235853 | 73 | 18 | 0.0 | 1.0 | 0.00 | 0.00 | 0.00 | 61 | 1005.9 |
| 20260505235351 | 73 | 35 | 6.0 | 9.0 | 0.00 | 0.00 | 0.00 | 61 | 1005.6 |
| 20260505234848 | 73 | 42 | 1.0 | 2.0 | 0.00 | 0.00 | 0.00 | 62 | 1005.6 |
| 20260505234346 | 73 | 354 | 0.0 | 0.0 | 0.00 | 0.00 | 0.00 | 62 | 1005.9 |
| 20260505233842 | 73 | 19 | 1.0 | 3.0 | 0.00 | 0.00 | 0.00 | 62 | 1005.7 |
| 20260505233340 | 74 | 36 | 0.0 | 0.0 | 0.00 | 0.00 | 0.00 | 61 | 1005.9 |
| 20260505232837 | 74 | 351 | 7.0 | 9.0 | 0.00 | 0.00 | 0.00 | 60 | 1005.8 |
| 20260505232335 | 74 | 13 | 3.0 | 7.0 | 0.00 | 0.00 | 0.00 | 61 | 1005.8 |
| 20260505231831 | 74 | 42 | 1.0 | 3.0 | 0.00 | 0.00 | 0.00 | 63 | 1005.6 |
| 20260505231329 | 74 | 10 | 0.0 | 0.0 | 0.00 | 0.00 | 0.00 | 62 | 1005.8 |
| 20260505230827 | 74 | 45 | 4.0 | 6.0 | 0.00 | 0.00 | 0.00 | 62 | 1005.8 |
| 20260505230324 | 75 | 335 | 2.0 | 5.0 | 0.00 | 0.00 | 0.00 | 61 | 1005.4 |
| 20260505225821 | 76 | 15 | 0.0 | 1.0 | 0.00 | 0.00 | 0.00 | 62 | 1005.2 |
| 20260505225319 | 76 | 359 | 0.0 | 0.0 | 0.00 | 0.00 | 0.00 | 62 | 1005.1 |
| 20260505224819 | 76 | 359 | 3.0 | 5.0 | 0.00 | 0.00 | 0.00 | 63 | 1004.9 |
| 20260505224317 | 78 | 35 | 1.0 | 3.0 | 0.00 | 0.00 | 0.00 | 58 | 1005.1 |
| 20260505223814 | 78 | 62 | 4.0 | 6.0 | 0.00 | 0.00 | 0.00 | 59 | 1004.9 |
| 20260505223311 | 78 | 69 | 5.0 | 8.0 | 0.00 | 0.00 | 0.00 | 60 | 1004.8 |
| 20260505222806 | 77 | 29 | 3.0 | 5.0 | 0.00 | 0.00 | 0.00 | 60 | 1004.9 |
| 20260505222305 | 78 | 338 | 5.0 | 6.0 | 0.00 | 0.00 | 0.00 | 62 | 1004.9 |
| 20260505221800 | 77 | 11 | 5.0 | 8.0 | 0.00 | 0.00 | 0.00 | 60 | 1004.9 |
| 20260505221257 | 77 | 2 | 5.0 | 8.0 | 0.00 | 0.00 | 0.00 | 61 | 1004.5 |
| 20260505220754 | 78 | 9 | 6.0 | 9.0 | 0.00 | 0.00 | 0.00 | 60 | 1004.9 |
| 20260505220251 | 78 | 319 | 7.0 | 8.0 | 0.00 | 0.00 | 0.00 | 60 | 1004.9 |
| 20260505215749 | 78 | 308 | 8.0 | 10.0 | 0.00 | 0.00 | 0.00 | 60 | 1004.9 |
| 20260505215246 | 78 | 16 | 7.0 | 10.0 | 0.00 | 0.00 | 0.00 | 59 | 1004.9 |
| 20260505214744 | 79 | 6 | 6.0 | 7.0 | 0.00 | 0.00 | 0.00 | 59 | 1004.9 |
| 20260505214241 | 79 | 320 | 9.0 | 13.0 | 0.00 | 0.00 | 0.00 | 59 | 1004.9 |
| 20260505213738 | 80 | 72 | 3.0 | 6.0 | 0.00 | 0.00 | 0.00 | 59 | 1004.9 |
| 20260505213236 | 81 | 24 | 3.0 | 5.0 | 0.00 | 0.00 | 0.00 | 57 | 1004.8 |
| 20260505212731 | 83 | 28 | 5.0 | 7.0 | 0.00 | 0.00 | 0.00 | 55 | 1004.6 |
| 20260505212229 | 83 | 15 | 8.0 | 9.0 | 0.00 | 0.00 | 0.00 | 55 | 1004.6 |
| 20260505211726 | 83 | 1 | 7.0 | 9.0 | 0.00 | 0.00 | 0.00 | 55 | 1004.4 |
| 20260505211223 | 83 | 12 | 5.0 | 7.0 | 0.00 | 0.00 | 0.00 | 56 | 1004.5 |
| 20260505210719 | 84 | 348 | 8.0 | 10.0 | 0.00 | 0.00 | 0.00 | 55 | 1004.5 |
| 20260505210216 | 85 | 21 | 4.0 | 6.0 | 0.00 | 0.00 | 0.00 | 53 | 1004.6 |
| 20260505205714 | 84 | 38 | 3.0 | 6.0 | 0.00 | 0.00 | 0.00 | 55 | 1004.5 |
| 20260505205212 | 84 | 5 | 5.0 | 9.0 | 0.00 | 0.00 | 0.00 | 55 | 1004.8 |
| 20260505204708 | 86 | 346 | 5.0 | 9.0 | 0.00 | 0.00 | 0.00 | 53 | 1004.6 |
| 20260505204206 | 86 | 21 | 4.0 | 6.0 | 0.00 | 0.00 | 0.00 | 52 | 1004.6 |
| 20260505203703 | 87 | 354 | 5.0 | 6.0 | 0.00 | 0.00 | 0.00 | 50 | 1004.4 |
| 20260505203200 | 86 | 27 | 7.0 | 9.0 | 0.00 | 0.00 | 0.00 | 46 | 1004.7 |
| 20260505202655 | 86 | 274 | 3.0 | 5.0 | 0.00 | 0.00 | 0.00 | 48 | 1004.5 |
| 20260505202152 | 86 | 287 | 6.0 | 8.0 | 0.00 | 0.00 | 0.00 | 47 | 1004.7 |
| 20260505201648 | 86 | 6 | 3.0 | 5.0 | 0.00 | 0.00 | 0.00 | 45 | 1005.0 |
| 20260505201146 | 86 | 1 | 5.0 | 6.0 | 0.00 | 0.00 | 0.00 | 46 | 1004.8 |
| 20260505200644 | 86 | 290 | 3.0 | 7.0 | 0.00 | 0.00 | 0.00 | 46 | 1004.8 |
| 20260505200141 | 85 | 345 | 5.0 | 9.0 | 0.00 | 0.00 | 0.00 | 45 | 1005.0 |
| 20260505195637 | 86 | 287 | 7.0 | 9.0 | 0.00 | 0.00 | 0.00 | 46 | 1004.9 |
| 20260505195134 | 85 | 29 | 5.0 | 8.0 | 0.00 | 0.00 | 0.00 | 42 | 1004.9 |
| 20260505194631 | 85 | 339 | 7.0 | 8.0 | 0.00 | 0.00 | 0.00 | 41 | 1005.0 |
| 20260505194127 | 85 | 285 | 11.0 | 13.0 | 0.00 | 0.00 | 0.00 | 41 | 1005.0 |
| 20260505193624 | 84 | 353 | 5.0 | 6.0 | 0.00 | 0.00 | 0.00 | 43 | 1005.0 |
| 20260505193121 | 83 | 349 | 6.0 | 10.0 | 0.00 | 0.00 | 0.00 | 42 | 1005.1 |
| 20260505192620 | 83 | 339 | 10.0 | 10.0 | 0.00 | 0.00 | 0.00 | 43 | 1005.0 |
| 20260505192117 | 83 | 330 | 7.0 | 9.0 | 0.00 | 0.00 | 0.00 | 41 | 1005.0 |
| 20260505191615 | 84 | 32 | 8.0 | 10.0 | 0.00 | 0.00 | 0.00 | 40 | 1005.0 |
| 20260505191113 | 87 | 266 | 5.0 | 6.0 | 0.00 | 0.00 | 0.00 | 50 | 1004.7 |
| 20260505190608 | 87 | 244 | 5.0 | 5.0 | 0.00 | 0.00 | 0.00 | 49 | 1004.5 |
| 20260505190104 | 87 | 275 | 3.0 | 6.0 | 0.00 | 0.00 | 0.00 | 48 | 1004.5 |
| 20260505185600 | 86 | 281 | 8.0 | 10.0 | 0.00 | 0.00 | 0.00 | 50 | 1004.7 |
| 20260505185057 | 87 | 251 | 3.0 | 3.0 | 0.00 | 0.00 | 0.00 | 57 | 1004.8 |
| 20260505184554 | 86 | 209 | 9.0 | 9.0 | 0.00 | 0.00 | 0.00 | 55 | 1004.4 |
| 20260505184050 | 86 | 232 | 9.0 | 10.0 | 0.00 | 0.00 | 0.00 | 56 | 1004.9 |
| 20260505183547 | 87 | 231 | 6.0 | 6.0 | 0.00 | 0.00 | 0.00 | 54 | 1004.8 |
| 20260505183045 | 86 | 218 | 13.0 | 14.0 | 0.00 | 0.00 | 0.00 | 54 | 1004.9 |
| 20260505182541 | 86 | 225 | 11.0 | 13.0 | 0.00 | 0.00 | 0.00 | 55 | 1004.8 |
| 20260505182038 | 86 | 225 | 7.0 | 9.0 | 0.00 | 0.00 | 0.00 | 58 | 1004.8 |
| 20260505181534 | 85 | 231 | 8.0 | 9.0 | 0.00 | 0.00 | 0.00 | 59 | 1004.7 |
| 20260505181033 | 86 | 224 | 12.0 | 14.0 | 0.00 | 0.00 | 0.00 | 56 | 1004.6 |
| 20260505180528 | 85 | 229 | 9.0 | 9.0 | 0.00 | 0.00 | 0.00 | 58 | 1004.7 |
| 20260505180027 | 84 | 239 | 12.0 | 14.0 | 0.00 | 0.00 | 0.00 | 57 | 1004.7 |
| 20260505175526 | 84 | 225 | 11.0 | 11.0 | 0.00 | 0.00 | 0.00 | 58 | 1004.7 |
| 20260505175023 | 84 | 224 | 10.0 | 11.0 | 0.00 | 0.00 | 0.00 | 60 | 1004.9 |
| 20260505174520 | 84 | 228 | 9.0 | 10.0 | 0.00 | 0.00 | 0.00 | 58 | 1004.7 |
| 20260505174016 | 84 | 226 | 6.0 | 8.0 | 0.00 | 0.00 | 0.00 | 60 | 1004.9 |
| 20260505173513 | 84 | 214 | 10.0 | 11.0 | 0.00 | 0.00 | 0.00 | 59 | 1004.8 |
| 20260505173010 | 83 | 220 | 9.0 | 10.0 | 0.00 | 0.00 | 0.00 | 62 | 1004.9 |
| 20260505172508 | 83 | 230 | 7.0 | 8.0 | 0.00 | 0.00 | 0.00 | 62 | 1004.9 |
| 20260505172009 | 84 | 209 | 10.0 | 11.0 | 0.00 | 0.00 | 0.00 | 61 | 1004.6 |
| 20260505171505 | 84 | 222 | 10.0 | 11.0 | 0.00 | 0.00 | 0.00 | 59 | 1004.9 |
| 20260505171001 | 84 | 225 | 12.0 | 14.0 | 0.00 | 0.00 | 0.00 | 59 | 1004.9 |
| 20260505170458 | 83 | 220 | 9.0 | 9.0 | 0.00 | 0.00 | 0.00 | 59 | 1004.7 |
| 20260505165954 | 83 | 233 | 10.0 | 11.0 | 0.00 | 0.00 | 0.00 | 60 | 1004.6 |
| 20260505165450 | 83 | 239 | 4.0 | 6.0 | 0.00 | 0.00 | 0.00 | 59 | 1004.6 |
| 20260505164945 | 83 | 235 | 9.0 | 10.0 | 0.00 | 0.00 | 0.00 | 58 | 1004.4 |
| 20260505164442 | 83 | 245 | 11.0 | 14.0 | 0.00 | 0.00 | 0.00 | 59 | 1004.6 |
| 20260505163940 | 83 | 218 | 9.0 | 9.0 | 0.00 | 0.00 | 0.00 | 59 | 1004.5 |
| 20260505163439 | 83 | 219 | 11.0 | 13.0 | 0.00 | 0.00 | 0.00 | 59 | 1004.3 |
| 20260505162937 | 83 | 229 | 11.0 | 11.0 | 0.00 | 0.00 | 0.00 | 61 | 1004.5 |
| 20260505162433 | 82 | 230 | 10.0 | 11.0 | 0.00 | 0.00 | 0.00 | 61 | 1004.1 |
| 20260505161930 | 82 | 252 | 9.0 | 11.0 | 0.00 | 0.00 | 0.00 | 62 | 1004.3 |
| 20260505161426 | 82 | 229 | 7.0 | 8.0 | 0.00 | 0.00 | 0.00 | 64 | 1004.6 |
| 20260505160924 | 82 | 237 | 7.0 | 9.0 | 0.00 | 0.00 | 0.00 | 63 | 1004.6 |
| 20260505160422 | 82 | 222 | 8.0 | 8.0 | 0.00 | 0.00 | 0.00 | 63 | 1004.6 |
| 20260505152858 | 80 | 226 | 7.0 | 7.0 | 0.00 | 0.00 | 0.00 | 69 | 1003.8 |
| 20260505152356 | 80 | 226 | 7.0 | 8.0 | 0.00 | 0.00 | 0.00 | 69 | 1003.9 |
| 20260505151855 | 79 | 217 | 6.0 | 7.0 | 0.00 | 0.00 | 0.00 | 71 | 1004.1 |
| 20260505151352 | 78 | 207 | 8.0 | 9.0 | 0.00 | 0.00 | 0.00 | 70 | 1004.1 |
| 20260505150849 | 78 | 222 | 9.0 | 10.0 | 0.00 | 0.00 | 0.00 | 71 | 1004.1 |
| 20260505150347 | 78 | 222 | 6.0 | 6.0 | 0.00 | 0.00 | 0.00 | 72 | 1004.2 |
| 20260505140317 | 74 | 219 | 7.0 | 8.0 | 0.00 | 0.00 | 0.00 | 78 | 1003.5 |
| 20260505130240 | 72 | 231 | 12.0 | 14.0 | 0.00 | 0.00 | 0.00 | 80 | 1003.1 |
| 20260505124731 | 72 | 209 | 10.0 | 10.0 | 0.00 | 0.00 | 0.00 | 81 | 1003.1 |
| 20260505124228 | 72 | 219 | 10.0 | 13.0 | 0.00 | 0.00 | 0.00 | 80 | 1003.0 |
| 20260505123723 | 72 | 218 | 9.0 | 11.0 | 0.00 | 0.00 | 0.00 | 80 | 1003.0 |
| 20260505123220 | 72 | 215 | 9.0 | 9.0 | 0.00 | 0.00 | 0.00 | 81 | 1003.0 |
| 20260505122717 | 71 | 223 | 14.0 | 16.0 | 0.00 | 0.00 | 0.00 | 81 | 1003.0 |
| 20260505122214 | 71 | 228 | 13.0 | 15.0 | 0.00 | 0.00 | 0.00 | 81 | 1002.8 |
| 20260505121710 | 71 | 223 | 9.0 | 11.0 | 0.00 | 0.00 | 0.00 | 81 | 1003.0 |
| 20260505121207 | 72 | 219 | 11.0 | 15.0 | 0.00 | 0.00 | 0.00 | 80 | 1003.0 |
| 20260505120703 | 71 | 201 | 14.0 | 17.0 | 0.00 | 0.00 | 0.00 | 80 | 1002.6 |
| 20260505120159 | 71 | 215 | 8.0 | 9.0 | 0.00 | 0.00 | 0.00 | 81 | 1002.6 |
| 20260505115653 | 71 | 218 | 10.0 | 11.0 | 0.00 | 0.00 | 0.00 | 81 | 1002.7 |
| 20260505115151 | 72 | 214 | 11.0 | 13.0 | 0.00 | 0.00 | 0.00 | 80 | 1002.7 |
| 20260505114648 | 72 | 224 | 13.0 | 15.0 | 0.00 | 0.00 | 0.00 | 80 | 1002.5 |
| 20260505114144 | 72 | 213 | 10.0 | 14.0 | 0.00 | 0.00 | 0.00 | 80 | 1002.4 |
| 20260505113641 | 72 | 205 | 13.0 | 16.0 | 0.00 | 0.00 | 0.00 | 80 | 1002.3 |
| 20260505113137 | 72 | 221 | 12.0 | 17.0 | 0.00 | 0.00 | 0.00 | 79 | 1002.5 |
| 20260505112633 | 72 | 217 | 13.0 | 16.0 | 0.00 | 0.00 | 0.00 | 79 | 1002.2 |
| 20260505112132 | 72 | 221 | 12.0 | 14.0 | 0.00 | 0.00 | 0.00 | 80 | 1002.4 |
| 20260505111625 | 72 | 225 | 12.0 | 14.0 | 0.00 | 0.00 | 0.00 | 79 | 1002.3 |
| 20260505111121 | 72 | 223 | 13.0 | 14.0 | 0.00 | 0.00 | 0.00 | 79 | 1002.4 |
| 20260505110618 | 73 | 208 | 13.0 | 17.0 | 0.00 | 0.00 | 0.00 | 78 | 1002.2 |
| 20260505110115 | 73 | 209 | 16.0 | 20.0 | 0.00 | 0.00 | 0.00 | 78 | 1002.2 |
| 20260505102051 | 72 | 205 | 15.0 | 18.0 | 0.00 | 0.00 | 0.00 | 78 | 1002.3 |
| 20260505101549 | 72 | 226 | 13.0 | 15.0 | 0.00 | 0.00 | 0.00 | 79 | 1002.4 |
| 20260505101045 | 73 | 235 | 18.0 | 21.0 | 0.00 | 0.00 | 0.00 | 78 | 1002.3 |
| 20260505100542 | 72 | 215 | 10.0 | 13.0 | 0.00 | 0.00 | 0.00 | 79 | 1002.4 |
| 20260505100039 | 72 | 218 | 11.0 | 13.0 | 0.00 | 0.00 | 0.00 | 78 | 1002.3 |
| 20260505095535 | 73 | 211 | 9.0 | 10.0 | 0.00 | 0.00 | 0.00 | 78 | 1002.2 |
| 20260505095031 | 73 | 222 | 11.0 | 14.0 | 0.00 | 0.00 | 0.00 | 79 | 1002.3 |
| 20260505094528 | 72 | 216 | 10.0 | 13.0 | 0.00 | 0.00 | 0.00 | 79 | 1002.4 |
| 20260505094024 | 72 | 223 | 10.0 | 11.0 | 0.00 | 0.00 | 0.00 | 79 | 1002.1 |
| 20260505093521 | 73 | 217 | 11.0 | 14.0 | 0.00 | 0.00 | 0.00 | 79 | 1002.4 |
| 20260505093018 | 72 | 226 | 10.0 | 11.0 | 0.00 | 0.00 | 0.00 | 79 | 1002.4 |
| 20260505092515 | 72 | 218 | 12.0 | 13.0 | 0.00 | 0.00 | 0.00 | 79 | 1002.5 |
| 20260505092014 | 72 | 220 | 11.0 | 13.0 | 0.00 | 0.00 | 0.00 | 79 | 1002.3 |
| 20260505091510 | 72 | 215 | 9.0 | 10.0 | 0.00 | 0.00 | 0.00 | 77 | 1002.5 |
| 20260505091009 | 72 | 214 | 11.0 | 11.0 | 0.00 | 0.00 | 0.00 | 78 | 1002.6 |
| 20260505090506 | 73 | 219 | 11.0 | 13.0 | 0.00 | 0.00 | 0.00 | 78 | 1002.6 |
| 20260505090003 | 72 | 208 | 12.0 | 14.0 | 0.00 | 0.00 | 0.00 | 79 | 1002.8 |
| 20260505085501 | 73 | 213 | 7.0 | 8.0 | 0.00 | 0.00 | 0.00 | 79 | 1002.7 |
| 20260505084959 | 73 | 207 | 9.0 | 10.0 | 0.00 | 0.00 | 0.00 | 78 | 1002.6 |
| 20260505084457 | 73 | 198 | 6.0 | 7.0 | 0.00 | 0.00 | 0.00 | 78 | 1002.8 |